Weather History for LFMP - November, 2013

Change the Weather History Date:

Thursday, November 7, 2013

  Actual Average Record
Temperature  
Mean Temperature 66 °F -  
Max Temperature 76 °F 57 °F - ()
Min Temperature 55 °F 43 °F - ()
Growing Degree Days 16 (Base 50)    
Moisture  
Dew Point 54 °F    
Average Humidity 69    
Maximum Humidity 88    
Minimum Humidity 32    
Precipitation  
Precipitation 0.00 in 0.08 in - ()
Sea Level Pressure  
Sea Level Pressure 30.03 in    
Wind  
Wind Speed 4 mph ()    
Max Wind Speed 8 mph    
Max Gust Speed -    
Visibility 6.2 miles    
Events      
T = Trace of Precipitation, MM = Missing Value Source: Averaged Metar Reports

Daily Weather History Graph

Daily Weather History Graph

Search for Another Location

Airport or City:

Trip Planner

Search our weather history database for the weather conditions in past years. The results will help you decide how hot, cold, wet, or windy it might be!

Date:

Astronomy

Nov. 07, 2013 Rise Set
Actual Time 7:30 AM CET 5:33 PM CET
Civil Twilight 7:00 AM CET 6:03 PM CET
Nautical Twilight 6:26 AM CET 6:37 PM CET
Astronomical Twilight 5:53 AM CET 7:10 PM CET
Moon 11:27 AM CET (11/7) 9:26 PM CET (11/7)
Length of Visible Light 11h 03m
Length of Day
10h 03m
Waxing Crescent, 20% of the Moon is Illuminated
Nov 7
Waxing Crescent
Nov 10
First Quarter
Nov 17
Full
Nov 25
Last Quarter
Dec 3
New

Hourly Weather History & Observations

Time (CET) Temp. Dew Point Humidity Pressure Visibility Wind Dir Wind Speed Gust Speed Precip Events Conditions
12:00 AM 57.2 °F 53.6 °F 88% 30.06 in 6.2 mi WNW 4.6 mph - N/A   Unknown
12:30 AM 59.0 °F 53.6 °F 82% 30.06 in 6.2 mi SW 3.5 mph - N/A   Mostly Cloudy
1:00 AM 59 °F 54 °F 77% 30.08 in 37 mi West 4.6 mph - -   Clear
1:00 AM 59.0 °F 53.6 °F 82% 30.06 in 6.2 mi West 4.6 mph - N/A   Overcast
1:30 AM 60.8 °F 53.6 °F 77% 30.06 in 6.2 mi Variable 3.5 mph - N/A   Overcast
2:00 AM 60.8 °F 55.4 °F 82% 30.06 in 6.2 mi WNW 4.6 mph - N/A   Mostly Cloudy
2:30 AM 59.0 °F 53.6 °F 82% 30.06 in 6.2 mi WSW 4.6 mph - N/A   Mostly Cloudy
3:00 AM 59.0 °F 53.6 °F 82% 30.06 in 6.2 mi West 2.3 mph - N/A   Overcast
3:30 AM 59.0 °F 53.6 °F 82% 30.06 in 6.2 mi Calm Calm - N/A   Mostly Cloudy
4:00 AM 59.0 °F 53.6 °F 82% 30.06 in 6.2 mi NE 1.2 mph - N/A   Overcast
4:30 AM 59.0 °F 53.6 °F 82% 30.06 in 6.2 mi Calm Calm - N/A   Overcast
5:00 AM 59.0 °F 53.6 °F 82% 30.06 in 6.2 mi Variable 2.3 mph - N/A   Overcast
5:30 AM 60.8 °F 53.6 °F 77% 30.06 in 6.2 mi Variable 2.3 mph - N/A   Mostly Cloudy
6:00 AM 60.8 °F 51.8 °F 72% 30.06 in 6.2 mi SW 4.6 mph - N/A   Overcast
6:30 AM 59.0 °F 51.8 °F 77% 30.06 in 6.2 mi WSW 6.9 mph - N/A   Partly Cloudy
7:00 AM 58 °F 51 °F 72% 30.07 in 22 mi SW 6.9 mph - -   Scattered Clouds
7:00 AM 59.0 °F 51.8 °F 77% 30.06 in 6.2 mi SW 6.9 mph - N/A   Partly Cloudy
7:30 AM 55.4 °F 50.0 °F 82% 30.06 in 6.2 mi WSW 5.8 mph - N/A   Partly Cloudy
8:00 AM 55.4 °F 50.0 °F 82% 30.06 in - West 5.8 mph - N/A   Clear
8:30 AM 57.2 °F 51.8 °F 82% 30.06 in - West 4.6 mph - N/A   Clear
9:00 AM 62.6 °F 53.6 °F 72% 30.06 in - WSW 5.8 mph - N/A   Clear
9:30 AM 66.2 °F 53.6 °F 64% 30.06 in - West 8.1 mph - N/A   Clear
10:00 AM 68.0 °F 51.8 °F 56% 30.06 in - West 6.9 mph - N/A   Clear
10:30 AM 69.8 °F 53.6 °F 56% 30.06 in - West 4.6 mph - N/A   Clear
11:00 AM 71.6 °F 51.8 °F 50% 30.06 in - Variable 2.3 mph - N/A   Clear
11:30 AM 73.4 °F 53.6 °F 50% 30.04 in 6.2 mi Variable 3.5 mph - N/A   Partly Cloudy
12:00 PM 73.4 °F 53.6 °F 50% 30.04 in 6.2 mi SSE 3.5 mph - N/A   Partly Cloudy
12:30 PM 73.4 °F 51.8 °F 47% 30.04 in 6.2 mi Variable 2.3 mph - N/A   Partly Cloudy
1:00 PM 75 °F 51 °F 32% 30.03 in 22 mi WNW 2.3 mph - -   Scattered Clouds
1:00 PM 75.2 °F 51.8 °F 44% 30.01 in 6.2 mi Variable 2.3 mph - N/A   Partly Cloudy
1:30 PM 77.0 °F 51.8 °F 41% 30.01 in 6.2 mi East 3.5 mph - N/A   Partly Cloudy
2:00 PM 75.2 °F 51.8 °F 44% 30.01 in 6.2 mi Variable 3.5 mph - N/A   Partly Cloudy
2:30 PM 75.2 °F 53.6 °F 47% 30.01 in 6.2 mi East 6.9 mph - N/A   Partly Cloudy
3:00 PM 73.4 °F 53.6 °F 50% 30.01 in 6.2 mi East 8.1 mph - N/A   Partly Cloudy
3:30 PM 73.4 °F 53.6 °F 50% 29.98 in 6.2 mi ESE 8.1 mph - N/A   Scattered Clouds
4:00 PM 71.6 °F 55.4 °F 57% 29.98 in 6.2 mi ESE 6.9 mph - N/A   Scattered Clouds
4:30 PM 69.8 °F 55.4 °F 60% 29.98 in 6.2 mi ESE 6.9 mph - N/A   Mostly Cloudy
5:00 PM 68.0 °F 55.4 °F 64% 29.98 in 6.2 mi ESE 4.6 mph - N/A   Mostly Cloudy
5:30 PM 66.2 °F 57.2 °F 73% 29.98 in 6.2 mi ENE 5.8 mph - N/A   Mostly Cloudy
6:00 PM 66.2 °F 57.2 °F 73% 30.01 in 6.2 mi NE 4.6 mph - N/A   Mostly Cloudy
6:30 PM 64.4 °F 57.2 °F 77% 30.01 in 6.2 mi NNE 4.6 mph - N/A   Mostly Cloudy
7:00 PM 65 °F 57 °F 69% 30.01 in 22 mi NNE 4.6 mph - -   Mostly Cloudy
7:00 PM 64.4 °F 57.2 °F 77% 30.01 in 6.2 mi NNE 4.6 mph - N/A   Mostly Cloudy
7:30 PM 64.4 °F 57.2 °F 77% 30.01 in 6.2 mi North 5.8 mph - N/A   Overcast
8:00 PM 64.4 °F 57.2 °F 77% 30.01 in 6.2 mi NNE 5.8 mph - N/A   Overcast
8:30 PM 64.4 °F 57.2 °F 77% 29.98 in 6.2 mi North 4.6 mph - N/A   Overcast
9:00 PM 64.4 °F 55.4 °F 73% 30.01 in 6.2 mi North 5.8 mph - N/A   Overcast
9:30 PM 64.4 °F 55.4 °F 73% 29.98 in 6.2 mi Variable 2.3 mph - N/A   Overcast
10:00 PM 64.4 °F 55.4 °F 73% 30.01 in 6.2 mi WSW 2.3 mph - N/A   Overcast
10:30 PM 62.6 °F 55.4 °F 77% 30.01 in 6.2 mi NE 1.2 mph - N/A   Overcast
11:00 PM 62.6 °F 55.4 °F 77% 29.98 in 6.2 mi NNE 2.3 mph - N/A   Overcast
11:30 PM 62.6 °F 59.0 °F 88% 29.98 in 6.2 mi North 3.5 mph - N/A   Mostly Cloudy